Weather History for MRPV - April, 2014

Change the Weather History Date:

Friday, April 18, 2014

  Actual Average Record
Temperature  
Mean Temperature 76 °F -  
Max Temperature 84 °F 80 °F 84 °F (1998)
Min Temperature 67 °F 68 °F 64 °F (2012)
Cooling Degree Days 10    
Growing Degree Days 26 (Base 50)    
Moisture  
Dew Point 60 °F    
Average Humidity 55    
Maximum Humidity 69    
Minimum Humidity 37    
Precipitation  
Precipitation 0.00 in - - ()
Sea Level Pressure  
Sea Level Pressure 29.94 in    
Wind  
Wind Speed 12 mph ()    
Max Wind Speed 22 mph    
Max Gust Speed -    
Visibility 6.1 miles    
Events Rain    
Averages and records for this station are not official NWS values.
T = Trace of Precipitation, MM = Missing Value Source: Averaged Metar Reports

Daily Weather History Graph

Daily Weather History Graph

Search for Another Location

Airport or City:

Trip Planner

Search our weather history database for the weather conditions in past years. The results will help you decide how hot, cold, wet, or windy it might be!

Date:

Astronomy

Apr. 18, 2014 Rise Set
Actual Time 5:24 AM CST 5:47 PM CST
Civil Twilight 5:03 AM CST 6:08 PM CST
Nautical Twilight 4:38 AM CST 6:33 PM CST
Astronomical Twilight 4:13 AM CST 6:58 PM CST
Moon 9:07 PM CST (4/18) 8:09 AM CST (4/18)
Length of Visible Light 13h 05m
Length of Day
12h 22m
Waning Gibbous, 86% of the Moon is Illuminated
Apr 18
Waning Gibbous
Apr 22
Last Quarter
Apr 29
New
May 6
First Quarter
May 14
Full

Hourly Weather History & Observations

Time (CST) Temp. Heat Index Dew Point Humidity Pressure Visibility Wind Dir Wind Speed Gust Speed Precip Events Conditions
6:00 AM 69 °F - 57 °F 58% 29.83 in 6 mi East 11.5 mph - -   Clear
6:00 AM 69.8 °F - 57.2 °F 64% 29.98 in - East 11.5 mph - N/A   Clear
7:00 AM 71.6 °F - 57.2 °F 60% 30.00 in - ESE 11.5 mph - N/A   Clear
8:00 AM 75.2 °F - 59.0 °F 57% 30.01 in - East 13.8 mph - N/A   Clear
9:00 AM 78 °F - 58 °F 41% 29.85 in 6 mi ENE 12.7 mph - -   Scattered Clouds
9:00 AM 78.8 °F - 59.0 °F 51% 30.02 in - ENE 12.7 mph - N/A   Clear
10:00 AM 80.6 °F 81.1 °F 59.0 °F 48% 30.00 in - ENE 11.5 mph - N/A   Clear
11:00 AM 82.4 °F 82.9 °F 60.8 °F 48% 29.99 in 6.2 mi ENE 15.0 mph - N/A   Partly Cloudy
12:00 PM 83 °F - 61 °F 37% 29.82 in 6 mi South 13.8 mph - -   Scattered Clouds
12:00 PM 82.4 °F 82.9 °F 60.8 °F 48% 29.97 in 6.2 mi East 13.8 mph - N/A   Partly Cloudy
1:00 PM 84.2 °F 85.0 °F 62.6 °F 48% 29.95 in 6.2 mi East 16.1 mph - N/A   Scattered Clouds
2:00 PM 77.0 °F - 60.8 °F 57% 29.93 in 6.2 mi East 18.4 mph - N/A Rain Rain
2:05 PM 77.0 °F - 60.8 °F 57% 29.93 in 6.2 mi ENE 19.6 mph - N/A Rain Rain Showers
3:00 PM 72 °F - 61 °F 59% 29.79 in 6 mi East 21.9 mph - -   Partly Cloudy
3:00 PM 73.4 °F - 60.8 °F 65% 29.94 in 6.2 mi East 21.9 mph - N/A   Mostly Cloudy
4:00 PM 71.6 °F - 60.8 °F 69% 29.95 in 6.2 mi East 15.0 mph - N/A   Overcast
5:00 PM 73.4 °F - 59.0 °F 61% 29.97 in 6.2 mi East 18.4 mph - N/A   Mostly Cloudy
6:00 PM 71 °F - 59 °F 58% 29.86 in 6 mi East 13.8 mph - -   Scattered Clouds
6:00 PM 71.6 °F - 59.0 °F 64% 29.99 in 6.2 mi East 13.8 mph - N/A   Mostly Cloudy